Regional Weather Roundup
Issued by NWS Albany, NY

Home | Current Version | Previous Version | Graphics & Text | Print | Product List | Glossary Off
Versions: 1 2 3 4 5 6 7 8 9 10 11 12 13 14 15 16 17 18 19 20 21 22 23 24 25 26 27 28 29 30 31 32 33 34 35 36 37 38 39 40 41 42 43 44 45 46 47 48 49 50

000
ASUS41 KALY 300510
RWRALY

NEW YORK STATE HOURLY WEATHER ROUNDUP
NATIONAL WEATHER SERVICE ALBANY NY
100 AM EDT SAT APR 30 2016

NOTE: "FAIR" INDICATES FEW OR NO CLOUDS BELOW 12,000 FEET WITH NO
SIGNIFICANT WEATHER AND/OR NO OBSTRUCTIONS TO VISIBILITY.

NYZ032-033-038>043-046>054-057>066-NYZ062>081-082-084-300600-
EAST


CITY           SKY/WX    TMP DP  RH WIND       PRES   REMARKS
ALBANY         CLOUDY    51  40  65 S6        30.14R
GLENS FALLS    CLOUDY    48  25  40 NE5       30.15R
POUGHKEEPSIE   CLOUDY    46  42  86 CALM      30.17S
NEWBURGH       MOCLDY    43  43 100 CALM      30.17S FOG
MONTGOMERY     CLOUDY    44  41  89 N3        30.17S
WHITE PLAINS   MOCLDY    45  40  82 N3        30.16R
ISLIP          CLOUDY    45  39  79 NE5       30.16R
NEW YORK CITY  CLOUDY    48  36  63 N5        30.16R
CENTRAL PARK   CLOUDY    47  36  65 NE3       30.19R
$$

NYZ005>009-017-018-044>046-055-056-300600-
CENTRAL


CITY           SKY/WX    TMP DP  RH WIND       PRES   REMARKS
FULTON         CLOUDY    49  44  83 CALM      30.13F
SYRACUSE       CLOUDY    48  43  82 CALM      30.14F
ROME           CLOUDY    48  43  82 CALM      30.14F
ELMIRA         CLOUDY    43  41  93 N3        30.15R FOG
BINGHAMTON     CLOUDY    39  37  92 CALM      30.13S
MONTICELLO     CLOUDY    37  37 100 CALM      30.17R
$$

NYZ026>034-041>043-087-300600-
NORTH


CITY           SKY/WX    TMP DP  RH WIND       PRES   REMARKS
WATERTOWN      PTCLDY    38  28  67 E5        30.14F WCI  34
FORT DRUM      NOT AVBL
MASSENA        CLEAR     32  24  72 CALM      30.19S
SARANAC LAKE   CLEAR     27  19  72 CALM      30.13S
PLATTSBURGH    CLOUDY    41  14  33 NW5       30.17S
$$

NYZ001>004-010>016-019>021-085-300600-
WEST


CITY           SKY/WX    TMP DP  RH WIND       PRES   REMARKS
NIAGARA FALLS  CLOUDY    42  33  70 N3        30.17R
BUFFALO        CLOUDY    45  34  65 NW5       30.16S
DUNKIRK        MOCLDY    42  38  85 CALM      30.15F
JAMESTOWN      MOCLDY    39  37  93 CALM      30.12R
WELLSVILLE     CLOUDY    41  39  93 E5        30.13F
ROCHESTER      CLOUDY    47  38  71 N5        30.16R
PENN YAN       CLOUDY    45  42  89 CALM      30.14S
$$

             KEY
       WCI = WIND CHILL INDEX
       VSB = VISIBILITY
       HX  = HEAT INDEX
$$



USA.gov is the U.S. government's official web portal to all federal, state and local government web resources and services.